When you browse on this site, cookies collect data to enhance your experience and personalize the content and advertising you see.
Visit our Privacy Policy to learn more. By continuing to use the site, you agree to this use of cookies and data.
  • In Latvia
  • List of Countries
  • For 7 days
  • Water Temperature
  • Weather Map
  • Weather Widgets
  • user-avatar
    Login

    Hourly Weather Megri

    Today, 29 May, Friday

    Time Temperature Precipitation Wind Pressure Humidity
    00:00 +18°C° 0 mm 1 mps 624 mmHg 58%
    01:00 +18°C° 0 mm 1 mps 623 mmHg 57%
    02:00 +18°C° 0 mm 1 mps 623 mmHg 56%
    03:00 +18°C° 0 mm 1 mps 623 mmHg 55%
    04:00 +18°C° 0 mm 2 mps 623 mmHg 53%
    05:00 +19°C° 0 mm 2 mps 623 mmHg 51%
    06:00 +20°C° 0 mm 2 mps 624 mmHg 49%
    07:00 +23°C° 0 mm 2 mps 624 mmHg 42%
    08:00 +25°C° 0 mm 3 mps 625 mmHg 35%
    09:00 +27°C° 0 mm 3 mps 625 mmHg 28%
    10:00 +28°C° 0 mm 5 mps 625 mmHg 26%
    11:00 +29°C° 0 mm 6 mps 625 mmHg 24%
    12:00 +30°C° 0 mm 7 mps 625 mmHg 22%
    13:00 +31°C° 0 mm 8 mps 625 mmHg 21%
    14:00 +31°C° 0 mm 8 mps 625 mmHg 21%
    15:00 +31°C° 0 mm 9 mps 624 mmHg 20%
    16:00 +29°C° 0 mm 8 mps 624 mmHg 23%
    17:00 +28°C° 0 mm 7 mps 624 mmHg 26%
    18:00 +26°C° 0 mm 5 mps 623 mmHg 29%
    19:00 +23°C° 0 mm 4 mps 623 mmHg 30%
    20:00 +21°C° 0 mm 3 mps 622 mmHg 31%
    21:00 +19°C° 0 mm 2 mps 621 mmHg 31%
    22:00 +19°C° 0 mm 2 mps 621 mmHg 33%
    23:00 +19°C° 0 mm 1 mps 621 mmHg 34%

    Tomorrow, 30 May, Saturday

    Time Temperature Precipitation Wind Pressure Humidity
    00:00 +18°C° 0 mm 1 mps 621 mmHg 35%
    01:00 +18°C° 0 mm 1 mps 620 mmHg 36%
    02:00 +17°C° 0 mm 2 mps 620 mmHg 38%
    03:00 +16°C° 0 mm 2 mps 620 mmHg 39%
    04:00 +17°C° 0 mm 2 mps 621 mmHg 40%
    05:00 +18°C° 0 mm 2 mps 621 mmHg 41%
    06:00 +19°C° 0 mm 2 mps 622 mmHg 43%
    07:00 +20°C° 0 mm 2 mps 623 mmHg 37%
    08:00 +22°C° 0 mm 3 mps 623 mmHg 30%
    09:00 +25°C° 0 mm 3 mps 624 mmHg 24%
    10:00 +25°C° 0 mm 3 mps 624 mmHg 22%
    11:00 +26°C° 0 mm 4 mps 624 mmHg 20%
    12:00 +27°C° 0 mm 4 mps 624 mmHg 18%
    13:00 +27°C° 0 mm 4 mps 624 mmHg 18%
    14:00 +27°C° 0 mm 5 mps 624 mmHg 18%
    15:00 +27°C° 0 mm 5 mps 624 mmHg 19%
    16:00 +26°C° 0 mm 4 mps 624 mmHg 24%
    17:00 +25°C° 0 mm 3 mps 623 mmHg 28%
    18:00 +24°C° 0 mm 3 mps 623 mmHg 33%
    19:00 +21°C° 0 mm 2 mps 623 mmHg 44%
    20:00 +19°C° 0 mm 2 mps 623 mmHg 56%
    21:00 +17°C° 0 mm 2 mps 622 mmHg 67%
    22:00 +16°C° 0 mm 2 mps 622 mmHg 65%
    23:00 +15°C° 0 mm 1 mps 622 mmHg 62%

    Day after tomorrow, 31 May, Sunday

    Time Temperature Precipitation Wind Pressure Humidity
    00:00 +15°C° 0 mm 1 mps 622 mmHg 60%
    01:00 +14°C° 0 mm 1 mps 622 mmHg 58%
    02:00 +14°C° 0 mm 1 mps 621 mmHg 56%
    03:00 +13°C° 0 mm 1 mps 621 mmHg 54%
    04:00 +14°C° 0 mm 1 mps 622 mmHg 53%
    05:00 +15°C° 0 mm 1 mps 623 mmHg 53%
    06:00 +16°C° 0 mm 1 mps 623 mmHg 53%
    07:00 +18°C° 0 mm 1 mps 624 mmHg 48%
    08:00 +20°C° 0 mm 1 mps 624 mmHg 42%
    09:00 +21°C° 0 mm 1 mps 625 mmHg 36%
    10:00 +22°C° 0 mm 1 mps 625 mmHg 32%
    11:00 +23°C° 0 mm 2 mps 625 mmHg 29%
    12:00 +24°C° 0 mm 2 mps 625 mmHg 25%
    13:00 +25°C° 0 mm 2 mps 625 mmHg 24%
    14:00 +25°C° 0 mm 2 mps 625 mmHg 23%
    15:00 +26°C° 0 mm 3 mps 624 mmHg 22%
    16:00 +25°C° 0 mm 2 mps 624 mmHg 27%
    17:00 +24°C° 0 mm 2 mps 624 mmHg 31%
    18:00 +23°C° 0 mm 2 mps 623 mmHg 36%
    19:00 +20°C° 0 mm 2 mps 623 mmHg 47%
    20:00 +18°C° 0 mm 2 mps 623 mmHg 58%
    21:00 +16°C° 0 mm 2 mps 622 mmHg 70%
    22:00 +16°C° 0 mm 2 mps 622 mmHg 70%
    23:00 +15°C° 0 mm 2 mps 622 mmHg 71%

    1 June, Monday

    Time Temperature Precipitation Wind Pressure Humidity
    00:00 +15°C° 0 mm 2 mps 621 mmHg 71%
    01:00 +14°C° 0 mm 2 mps 621 mmHg 73%
    02:00 +14°C° 0 mm 2 mps 621 mmHg 75%
    03:00 +13°C° 0 mm 2 mps 621 mmHg 76%
    04:00 +14°C° 0 mm 1 mps 621 mmHg 73%
    05:00 +15°C° 0 mm 1 mps 622 mmHg 70%
    06:00 +16°C° 0 mm 1 mps 622 mmHg 67%
    07:00 +19°C° 0 mm 1 mps 623 mmHg 58%
    08:00 +19°C° 0 mm 2 mps 623 mmHg 48%
    09:00 +21°C° 0 mm 2 mps 624 mmHg 39%
    10:00 +23°C° 0 mm 2 mps 624 mmHg 34%
    11:00 +25°C° 0 mm 3 mps 624 mmHg 29%
    12:00 +26°C° 0 mm 3 mps 624 mmHg 24%
    13:00 +26°C° 0 mm 3 mps 624 mmHg 21%
    14:00 +27°C° 0 mm 4 mps 624 mmHg 18%
    15:00 +28°C° 0 mm 4 mps 624 mmHg 16%
    16:00 +27°C° 0 mm 4 mps 623 mmHg 20%
    17:00 +26°C° 0 mm 3 mps 623 mmHg 24%
    18:00 +25°C° 0 mm 3 mps 623 mmHg 28%
    19:00 +22°C° 0 mm 3 mps 623 mmHg 31%
    20:00 +20°C° 0 mm 2 mps 622 mmHg 35%
    21:00 +18°C° 0 mm 2 mps 622 mmHg 38%
    22:00 +18°C° 0 mm 2 mps 622 mmHg 40%
    23:00 +17°C° 0 mm 2 mps 621 mmHg 42%

    2 June, Tuesday

    Time Temperature Precipitation Wind Pressure Humidity
    00:00 +17°C° 0 mm 2 mps 621 mmHg 45%
    01:00 +16°C° 0 mm 2 mps 621 mmHg 45%
    02:00 +16°C° 0 mm 2 mps 621 mmHg 45%
    03:00 +16°C° 0 mm 2 mps 621 mmHg 45%
    04:00 +17°C° 0 mm 2 mps 621 mmHg 44%
    05:00 +17°C° 0 mm 2 mps 622 mmHg 44%
    06:00 +18°C° 0 mm 2 mps 622 mmHg 43%
    07:00 +20°C° 0 mm 3 mps 623 mmHg 37%
    08:00 +22°C° 0 mm 4 mps 623 mmHg 30%
    09:00 +25°C° 0 mm 4 mps 624 mmHg 24%
    10:00 +26°C° 0 mm 6 mps 624 mmHg 22%
    11:00 +27°C° 0 mm 7 mps 624 mmHg 21%
    12:00 +28°C° 0 mm 8 mps 624 mmHg 19%
    13:00 +29°C° 0 mm 8 mps 624 mmHg 19%
    14:00 +29°C° 0 mm 8 mps 624 mmHg 18%
    15:00 +29°C° 0 mm 8 mps 624 mmHg 18%
    16:00 +28°C° 0 mm 7 mps 624 mmHg 21%
    17:00 +27°C° 0 mm 6 mps 623 mmHg 24%
    18:00 +26°C° 0 mm 4 mps 623 mmHg 27%
    19:00 +24°C° 0 mm 3 mps 623 mmHg 29%
    20:00 +21°C° 0 mm 2 mps 622 mmHg 32%
    21:00 +20°C° 0 mm 1 mps 622 mmHg 35%
    22:00 +19°C° 0 mm 1 mps 622 mmHg 37%
    23:00 +19°C° 0 mm 1 mps 621 mmHg 38%

    3 June, Wednesday

    Time Temperature Precipitation Wind Pressure Humidity
    00:00 +18°C° 0 mm 1 mps 621 mmHg 40%
    01:00 +16°C° 0 mm 1 mps 621 mmHg 42%
    02:00 +16°C° 0 mm 1 mps 621 mmHg 44%
    03:00 +15°C° 0 mm 1 mps 621 mmHg 45%
    04:00 +15°C° 0 mm 0 mps 621 mmHg 45%
    05:00 +17°C° 0 mm 0 mps 622 mmHg 45%
    06:00 +18°C° 0 mm 0 mps 623 mmHg 45%
    07:00 +22°C° 0 mm 1 mps 623 mmHg 39%
    08:00 +24°C° 0 mm 1 mps 624 mmHg 32%
    09:00 +26°C° 0 mm 2 mps 624 mmHg 25%
    10:00 +27°C° 0 mm 3 mps 625 mmHg 23%
    11:00 +28°C° 0 mm 3 mps 625 mmHg 21%
    12:00 +29°C° 0 mm 4 mps 625 mmHg 19%
    13:00 +29°C° 0 mm 4 mps 625 mmHg 18%
    14:00 +30°C° 0 mm 4 mps 625 mmHg 17%
    15:00 +30°C° 0 mm 4 mps 625 mmHg 16%
    16:00 +29°C° 0 mm 4 mps 625 mmHg 19%
    17:00 +28°C° 0 mm 3 mps 624 mmHg 23%
    18:00 +27°C° 0 mm 3 mps 624 mmHg 26%
    19:00 +26°C° 0 mm 3 mps 624 mmHg 28%
    20:00 +24°C° 0 mm 3 mps 624 mmHg 30%
    21:00 +21°C° 0 mm 2 mps 623 mmHg 32%
    22:00 +20°C° 0 mm 2 mps 623 mmHg 32%
    23:00 +20°C° 0 mm 2 mps 623 mmHg 33%
    Show more